TimeICT,TemperatureF,Dew PointF,Humidity,Sea Level PressureIn,VisibilityMPH,Wind Direction,Wind SpeedMPH,Gust SpeedMPH,PrecipitationIn,Events,Conditions,WindDirDegrees,DateUTC
12:00 AM,78.8,75.2,89,29.83,5.0,Calm,Calm,-,N/A,,Mostly Cloudy,0,2013-11-07 17:00:00
12:30 AM,80.6,75.2,84,29.83,5.0,Variable,2.3,-,N/A,,Mostly Cloudy,0,2013-11-07 17:30:00
1:00 AM,80,77,89,29.78,6,Calm,Calm,,,,Mist,,2013-11-07 18:00:00
1:00 AM,78.8,75.2,89,29.83,5.0,Variable,2.3,-,N/A,,Mostly Cloudy,0,2013-11-07 18:00:00
1:30 AM,78.8,75.2,89,29.80,5.0,Calm,Calm,-,N/A,,Mostly Cloudy,0,2013-11-07 18:30:00
2:00 AM,77.0,75.2,94,29.80,5.0,Variable,1.2,-,N/A,,Mostly Cloudy,0,2013-11-07 19:00:00
2:30 AM,77.0,75.2,94,29.80,5.0,Variable,2.3,-,N/A,,Mostly Cloudy,0,2013-11-07 19:30:00
3:00 AM,77.0,75.2,94,29.77,5.0,Variable,2.3,-,N/A,,Mostly Cloudy,0,2013-11-07 20:00:00
3:30 AM,77.0,75.2,94,29.77,5.0,Variable,2.3,-,N/A,,Mostly Cloudy,0,2013-11-07 20:30:00
4:00 AM,77.0,73.4,89,29.77,5.0,Calm,Calm,-,N/A,,Mostly Cloudy,0,2013-11-07 21:00:00
4:30 AM,77.0,73.4,89,29.77,5.0,Calm,Calm,-,N/A,,Mostly Cloudy,0,2013-11-07 21:30:00
5:00 AM,77.0,73.4,89,29.77,5.0,Calm,Calm,-,N/A,,Mostly Cloudy,0,2013-11-07 22:00:00
5:30 AM,77.0,73.4,89,29.77,5.0,Calm,Calm,-,N/A,,Mostly Cloudy,0,2013-11-07 22:30:00
6:00 AM,77.0,75.2,94,29.80,5.0,Calm,Calm,-,N/A,,Mostly Cloudy,0,2013-11-07 23:00:00
6:30 AM,77.0,75.2,94,29.80,4.3,Variable,1.2,-,N/A,,Mostly Cloudy,0,2013-11-07 23:30:00
7:00 AM,78,76,93,29.77,5,Calm,Calm,,,,Mist,,2013-11-08 00:00:00
7:00 AM,77.0,75.2,94,29.80,4.3,Variable,2.3,-,N/A,,Mostly Cloudy,0,2013-11-08 00:00:00
7:30 AM,78.8,75.2,89,29.80,5.0,East,3.5,-,N/A,,Mostly Cloudy,80,2013-11-08 00:30:00
8:00 AM,82.4,77.0,84,29.83,5.0,Calm,Calm,-,N/A,,Mostly Cloudy,0,2013-11-08 01:00:00
8:30 AM,82.4,75.2,79,29.83,5.6,Calm,Calm,-,N/A,,Mostly Cloudy,0,2013-11-08 01:30:00
9:00 AM,84.2,75.2,74,29.83,5.6,South,4.6,-,N/A,,Mostly Cloudy,180,2013-11-08 02:00:00
9:30 AM,86.0,73.4,66,29.83,6.2,WSW,4.6,-,N/A,,Mostly Cloudy,240,2013-11-08 02:30:00
10:00 AM,86.0,73.4,66,29.83,6.2,WSW,5.8,-,N/A,,Mostly Cloudy,240,2013-11-08 03:00:00
10:30 AM,84.2,75.2,74,29.83,6.2,WSW,5.8,-,N/A,,Mostly Cloudy,240,2013-11-08 03:30:00
11:00 AM,86.0,73.4,66,29.83,6.2,West,11.5,-,N/A,,Mostly Cloudy,260,2013-11-08 04:00:00
11:30 AM,87.8,73.4,62,29.80,6.2,West,10.4,-,N/A,,Mostly Cloudy,280,2013-11-08 04:30:00
12:00 PM,86.0,75.2,70,29.80,6.2,West,9.2,-,N/A,,Mostly Cloudy,280,2013-11-08 05:00:00
12:30 PM,87.8,75.2,66,29.77,6.2,West,11.5,-,N/A,,Mostly Cloudy,270,2013-11-08 05:30:00
1:00 PM,89,76,57,29.77,6,West,5.8,,,,Scattered Clouds,270,2013-11-08 06:00:00
1:00 PM,86.0,73.4,66,29.77,6.2,West,10.4,-,N/A,,Mostly Cloudy,260,2013-11-08 06:00:00
1:30 PM,86.0,75.2,70,29.77,6.2,West,10.4,-,N/A,,Mostly Cloudy,260,2013-11-08 06:30:00
2:00 PM,86.0,73.4,66,29.74,6.2,WSW,10.4,-,N/A,,Mostly Cloudy,250,2013-11-08 07:00:00
2:30 PM,84.2,73.4,70,29.74,6.2,West,11.5,-,N/A,,Mostly Cloudy,270,2013-11-08 07:30:00
3:00 PM,86.0,75.2,70,29.74,6.2,SSW,8.1,-,N/A,,Mostly Cloudy,210,2013-11-08 08:00:00
3:30 PM,86.0,73.4,66,29.74,6.2,West,10.4,-,N/A,,Mostly Cloudy,270,2013-11-08 08:30:00
4:00 PM,86.0,73.4,66,29.71,6.2,WSW,8.1,-,N/A,,Mostly Cloudy,240,2013-11-08 09:00:00
4:30 PM,86.0,75.2,70,29.71,6.2,WSW,6.9,-,N/A,,Mostly Cloudy,240,2013-11-08 09:30:00
5:00 PM,86.0,73.4,66,29.74,6.2,WSW,8.1,-,N/A,,Mostly Cloudy,240,2013-11-08 10:00:00
5:30 PM,84.2,73.4,70,29.71,6.2,WSW,5.8,-,N/A,,Mostly Cloudy,240,2013-11-08 10:30:00
6:00 PM,80.6,75.2,84,29.74,6.2,SSW,4.6,-,N/A,,Mostly Cloudy,210,2013-11-08 11:00:00
6:30 PM,80.6,75.2,84,29.74,6.2,Calm,Calm,-,N/A,,Mostly Cloudy,0,2013-11-08 11:30:00
7:00 PM,83,77,77,29.73,6,Calm,Calm,,,,Scattered Clouds,,2013-11-08 12:00:00
7:00 PM,78.8,75.2,89,29.77,6.2,Calm,Calm,-,N/A,,Mostly Cloudy,0,2013-11-08 12:00:00
7:30 PM,78.8,75.2,89,29.77,6.2,Calm,Calm,-,N/A,,Mostly Cloudy,0,2013-11-08 12:30:00
8:00 PM,78.8,75.2,89,29.77,6.2,Calm,Calm,-,N/A,,Mostly Cloudy,0,2013-11-08 13:00:00
8:30 PM,78.8,75.2,89,29.80,6.2,Calm,Calm,-,N/A,,Mostly Cloudy,0,2013-11-08 13:30:00
9:00 PM,78.8,75.2,89,29.80,6.2,Calm,Calm,-,N/A,,Mostly Cloudy,0,2013-11-08 14:00:00
9:30 PM,78.8,75.2,89,29.83,6.2,Calm,Calm,-,N/A,,Mostly Cloudy,0,2013-11-08 14:30:00
10:00 PM,77.0,75.2,94,29.80,5.6,Calm,Calm,-,N/A,,Mostly Cloudy,0,2013-11-08 15:00:00
10:30 PM,77.0,75.2,94,29.80,5.6,Calm,Calm,-,N/A,,Mostly Cloudy,0,2013-11-08 15:30:00
11:00 PM,77.0,75.2,94,29.80,5.6,Calm,Calm,-,N/A,,Mostly Cloudy,0,2013-11-08 16:00:00
11:30 PM,77.0,75.2,94,29.80,5.6,Calm,Calm,-,N/A,,Mostly Cloudy,0,2013-11-08 16:30:00